Regional Weather Roundup
Issued by NWS Goodland, KS

Home | Current Version | Previous Version | Text Only | Print | Product List | Glossary Off
Versions: 1 2 3 4 5 6 7 8 9 10 11 12 13 14 15 16 17 18 19 20 21 22 23 24 25 26 27 28 29 30 31 32 33 34 35 36 37 38 39 40 41 42 43 44 45 46 47 48 49 50

000
ASUS43 KGLD 200908
RWRGLD

GOODLAND FORECAST AREA HOURLY WEATHER ROUNDUP
NATIONAL WEATHER SERVICE GOODLAND KS
300 AM MDT SAT SEP 20 2014

...OFFICIAL OBSERVATIONS...

CITY           SKY/WX    TMP DP  RH WIND       PRES   REMARKS
GOODLAND KS    PTCLDY    66  61  84 SW13      29.97R
HILL CITY KS   CLEAR     68  59  73 S7        29.92F
IMPERIAL NEB   PTCLDY    62  55  77 W9        29.92R
MCCOOK NEB     PTCLDY    68  61  78 SW8       29.89S
AKRON CO       PTCLDY    59  53  80 NW16      30.05R
BURLINGTON CO  CLEAR     62  58  86 SW9       30.00S
LIMON CO       MOCLDY    52  47  83 NW6       30.10R
$$

...UNOFFICIAL OBSERVATIONS...

CITY           SKY/WX    TMP DP  RH WIND       PRES   REMARKS
COLBY KS       CLEAR     66  64  94 SW8       29.96R
GOVE KS          N/A     69  32  25 MISG        N/A
NORTON KS      CLEAR     68  57  68 S13       29.88
SHARON SPRINGS   N/A     63  61  92 S9          N/A
WAKEENEY KS      N/A     67  57  68 MISG        N/A
TRENTON NEB      N/A     67  32  27 SW6         N/A
KIT CARSON CO    N/A     61  57  85 CALM        N/A
YUMA CO          N/A     63  51  66 NW10        N/A
$$


USA.gov is the U.S. government's official web portal to all federal, state and local government web resources and services.